Location: Poughquag
(41.6090°N, 73.6820°W)
Time: 12:39:36
(UTC-04:00)

Tiros 1 despin weight - Pass Details

Date: 02 June 2020
Orbit: 593 x 642 km, 48.2° (Epoch: 07 July)

Event Time Altitude Azimuth Distance (km) Brightness Sun altitude
Rises 11:36:07 0° 261° (W) 2,922 ? 64.9°
Reaches altitude 10° 11:38:31 10° 267° (W) 2,008 ? 65.2°
Maximum altitude 11:43:00 49° 343° (NNW) 813 ? 65.8°
Drops below altitude 10° 11:47:26 10° 58° (ENE) 1,983 ? 66.3°
Sets 11:49:47 0° 64° (ENE) 2,881 ? 66.6°
